Location: Alladorf
(49.9620°N, 11.3790°E)
Time: 19:59:48
(UTC+00:00)

Cosmos 2341 Rocket - Pass Details

Date: 29 November 2020
Orbit: 969 x 1004 km, 82.9° (Epoch: 25 January)

Event Time Altitude Azimuth Distance (km) Brightness Sun altitude
Rises 05:24:32 0° 179° (S) 3,649 7.3 -13.0°
Reaches altitude 10° 05:27:02 10° 177° (S) 2,705 6.6 -12.6°
Maximum altitude 05:33:11 71° 95° (E) 1,026 4.3 -11.7°
Drops below altitude 10° 05:39:24 10° 13° (NNE) 2,731 6.3 -10.7°
Sets 05:41:56 0° 12° (NNE) 3,686 6.9 -10.4°
